Tracking 19485 objects as of 21-Jan-2019
HD Live streaming from Space Station
objects crossing your sky now

FLOCK 3P 63

Track FLOCK 3P 63 now!
10-day predictions
FLOCK 3P 63 is classified as:


NORAD ID: 42035
Int'l Code: 2017-008CR
Perigee: 493.2 km
Apogee: 502.6 km
Inclination: 97.4 °
Period: 94.4 minutes
Semi major axis: 6868 km
RCS: Unknown
Launch date: February 15, 2017
Source: United States (US)
Launch site: SRIHARIKOTA (SRI)
aabbcc
Your satellite tracking list
Your tracking list is empty




NASA's NSSDC Master Catalog

Two Line Element Set (TLE):
1 42035U 17008CR  19020.92453023 +.00001148 +00000-0 +48887-4 0  9993
2 42035 097.4254 089.3726 0006873 340.0151 020.0816 15.25000334105253
Source of the keplerian elements: AFSPC